User: anonymous   Login
Location: Unspecified
(0.0000°N, 0.0000°E)
Time: 07:41:32
(UTC+00:00)
Language:

PAYLOAD E - Orbit

View from above orbital plane
View from above orbital plane
View from above satellite
View from above satellite

Ground track
Ground track

The orbit data is extracted from the following two-line orbital elements,

1 27059U 01058E   18115.76322381 +.00000009 +00000-0 -94544-5 0  9996
2 27059 082.5403 317.3024 0002200 109.7855 250.3466 12.61482550751762
Epoch (UTC): 25 April 2018 18:19:02
Eccentricity: 0.0002200
inclination: 82.5403°
perigee height: 1415 km
apogee height: 1418 km
right ascension of ascending node: 317.3024°
argument of perigee: 109.7855°
revolutions per day: 12.61482550
mean anomaly at epoch: 250.3466°
orbit number at epoch: 75176

The dashed part of the orbit path shows where the satellite is in the earth's shadow,  

DLR